K4VI Weather Reports


Display with metric or nautical units.
time (UTC)temp
F
wind
direction
speed
MPH
gust
MPH
rain 1hr
in
rain 24hr
in
rain mn
in
humidity
%
barometer
mb
20260905142503 64 312 6.0 12.0 0.00 0.00 0.00 44 1041.7
20260905142003 64 307 7.0 14.0 0.00 0.00 0.00 43 1041.6
20260905141503 64 312 8.0 15.0 0.00 0.00 0.00 44 1041.5
20260905141220 64 316 9.0 15.0 0.00 0.00 0.00 44 1041.5
20260905140503 63 318 10.0 16.0 0.00 0.00 0.00 44 1041.4
20260905140004 63 317 10.0 16.0 0.00 0.00 0.00 44 1041.2
20260905135503 63 317 10.0 17.0 0.00 0.00 0.00 44 1041.2
20260905135003 63 315 9.0 17.0 0.00 0.00 0.00 44 1041.2
20260905134503 63 313 8.0 18.0 0.00 0.00 0.00 45 1041.2
20260905134003 62 315 7.0 18.0 0.00 0.00 0.00 45 1041.1
20260905133503 62 319 6.0 12.0 0.00 0.00 0.00 45 1041.1
20260905133218 62 319 6.0 11.0 0.00 0.00 0.00 45 1041.1
20260905132503 61 315 6.0 12.0 0.00 0.00 0.00 47 1041.1
20260905132003 61 315 7.0 12.0 0.00 0.00 0.00 47 1041.0
20260905131717 61 317 7.0 11.0 0.00 0.00 0.00 47 1041.0
20260905131003 61 315 8.0 12.0 0.00 0.00 0.00 47 1041.0
20260905130503 61 315 7.0 12.0 0.00 0.00 0.00 47 1040.9
20260905130003 61 317 7.0 11.0 0.00 0.00 0.00 47 1040.8
20260905125719 61 316 7.0 12.0 0.00 0.00 0.00 47 1040.7
20260905125003 62 315 6.0 12.0 0.00 0.00 0.00 47 1040.7
20260905124503 62 312 5.0 12.0 0.00 0.00 0.00 47 1040.7
20260905124003 62 313 5.0 10.0 0.00 0.00 0.00 47 1040.6
20260905123503 62 311 5.0 10.0 0.00 0.00 0.00 46 1040.5
20260905123003 62 309 5.0 9.0 0.00 0.00 0.00 47 1040.6
20260905122503 62 311 5.0 9.0 0.00 0.00 0.00 47 1040.4
20260905122003 61 311 5.0 9.0 0.00 0.00 0.00 48 1040.4
20260905121503 61 311 5.0 10.0 0.00 0.00 0.00 48 1040.5
20260905121003 61 312 5.0 10.0 0.00 0.00 0.00 48 1040.5
20260905120503 61 312 5.0 8.0 0.00 0.00 0.00 49 1040.6
20260905120003 61 312 5.0 9.0 0.00 0.00 0.00 50 1040.6
20260905115503 60 314 5.0 9.0 0.00 0.00 0.00 50 1040.5
20260905115003 60 313 5.0 9.0 0.00 0.00 0.00 51 1040.4
20260905114503 60 310 4.0 8.0 0.00 0.00 0.00 52 1040.6
20260905114003 60 309 4.0 8.0 0.00 0.00 0.00 52 1040.6
20260905113503 60 311 4.0 7.0 0.00 0.00 0.00 52 1040.7
20260905113003 60 316 5.0 8.0 0.00 0.00 0.00 51 1040.7
20260905112503 60 315 5.0 9.0 0.00 0.00 0.00 51 1040.7
20260905112003 61 311 5.0 10.0 0.00 0.00 0.00 51 1040.7
20260905111503 61 308 6.0 10.0 0.00 0.00 0.00 51 1040.6
20260905111003 60 309 6.0 9.0 0.00 0.00 0.00 51 1040.6
20260905110503 60 311 5.0 9.0 0.00 0.00 0.00 51 1040.5
20260905110218 60 312 5.0 9.0 0.00 0.00 0.00 51 1040.5
20260905105503 60 311 5.0 10.0 0.00 0.00 0.00 51 1040.4
20260905105003 60 305 4.0 7.0 0.00 0.00 0.00 52 1040.4
20260905104503 60 296 4.0 8.0 0.00 0.00 0.00 52 1040.4
20260905104003 61 293 4.0 8.0 0.00 0.00 0.00 51 1040.4
20260905103503 60 294 4.0 6.0 0.00 0.00 0.00 52 1040.4
20260905103220 60 291 3.0 7.0 0.00 0.00 0.00 52 1040.4
20260905102718 60 296 3.0 7.0 0.00 0.00 0.00 52 1040.4
20260905102003 60 274 3.0 6.0 0.00 0.00 0.00 52 1040.5
20260905101503 61 270 3.0 6.0 0.00 0.00 0.00 51 1040.5
20260905101003 61 280 3.0 5.0 0.00 0.00 0.00 51 1040.4
20260905100503 61 266 3.0 6.0 0.00 0.00 0.00 51 1040.4
20260905100003 61 266 3.0 7.0 0.00 0.00 0.00 51 1040.4
20260905095503 61 278 3.0 7.0 0.00 0.00 0.00 51 1040.5
20260905095003 62 270 4.0 8.0 0.00 0.00 0.00 50 1040.5
20260905094503 62 262 4.0 8.0 0.00 0.00 0.00 50 1040.4
20260905094003 61 281 3.0 7.0 0.00 0.00 0.00 50 1040.5
20260905093503 61 309 3.0 6.0 0.00 0.00 0.00 51 1040.4
20260905093221 61 312 3.0 6.0 0.00 0.00 0.00 51 1040.3
20260905092503 61 309 3.0 5.0 0.00 0.00 0.00 51 1040.3
20260905092003 61 303 2.0 5.0 0.00 0.00 0.00 51 1040.3
20260905091503 61 307 3.0 5.0 0.00 0.00 0.00 50 1040.3
20260905091218 62 304 3.0 5.0 0.00 0.00 0.00 50 1040.3
20260905090503 61 283 4.0 8.0 0.00 0.00 0.00 50 1040.3
20260905090003 61 284 3.0 7.0 0.00 0.00 0.00 51 1040.2
20260905085503 61 315 2.0 8.0 0.00 0.00 0.00 50 1040.1
20260905085003 61 311 3.0 8.0 0.00 0.00 0.00 50 1040.1
20260905084717 61 307 4.0 8.0 0.00 0.00 0.00 50 1040.1
20260905084003 61 303 4.0 9.0 0.00 0.00 0.00 51 1040.1
20260905083503 61 302 3.0 9.0 0.00 0.00 0.00 51 1040.1
20260905083217 60 297 3.0 11.0 0.00 0.00 0.00 51 1040.3
20260905082503 61 311 3.0 11.0 0.00 0.00 0.00 51 1040.3
20260905082003 60 311 2.0 5.0 0.00 0.00 0.00 51 1040.4
20260905081721 60 306 2.0 7.0 0.00 0.00 0.00 51 1040.4
20260905081003 59 323 3.0 7.0 0.00 0.00 0.00 53 1040.4
20260905080503 59 331 2.0 5.0 0.00 0.00 0.00 55 1040.3
20260905080003 58 300 1.0 4.0 0.00 0.00 0.00 55 1040.3
20260905075503 59 266 1.0 2.0 0.00 0.00 0.00 54 1040.4
20260905075003 59 266 1.0 2.0 0.00 0.00 0.00 54 1040.4
20260905074503 59 263 1.0 3.0 0.00 0.00 0.00 54 1040.4
20260905074003 60 261 1.0 3.0 0.00 0.00 0.00 53 1040.4
20260905073503 60 260 1.0 4.0 0.00 0.00 0.00 53 1040.3
20260905073003 60 309 1.0 4.0 0.00 0.00 0.00 53 1040.3
20260905072503 60 334 1.0 4.0 0.00 0.00 0.00 53 1040.3
20260905072003 60 334 1.0 3.0 0.00 0.00 0.00 53 1040.2
20260905071503 60 334 1.0 3.0 0.00 0.00 0.00 53 1040.2
20260905071003 60 334 1.0 3.0 0.00 0.00 0.00 54 1040.1
20260905070503 59 333 1.0 3.0 0.00 0.00 0.00 54 1040.1
20260905070003 60 333 1.0 3.0 0.00 0.00 0.00 54 1040.1
20260905065503 60 333 1.0 3.0 0.00 0.00 0.00 53 1040.1
20260905065003 60 327 1.0 3.0 0.00 0.00 0.00 53 1040.1
20260905064503 61 324 1.0 3.0 0.00 0.00 0.00 52 1040.2
20260905064003 61 323 1.0 2.0 0.00 0.00 0.00 52 1040.1
20260905063503 62 323 1.0 2.0 0.00 0.00 0.00 52 1040.1
20260905063003 62 302 1.0 4.0 0.00 0.00 0.00 52 1040.0
20260905062503 62 286 2.0 4.0 0.00 0.00 0.00 52 1040.0
20260905062004 62 275 1.0 3.0 0.00 0.00 0.00 51 1040.0
20260905061503 62 275 1.0 3.0 0.00 0.00 0.00 50 1039.9
20260905061003 62 275 0.0 2.0 0.00 0.00 0.00 49 1039.9
20260905060503 63 274 0.0 2.0 0.00 0.00 0.00 48 1039.9
20260905060003 64 275 1.0 3.0 0.00 0.00 0.00 48 1039.9
20260905055503 64 279 1.0 3.0 0.00 0.00 0.00 48 1039.9
20260905055003 64 292 2.0 6.0 0.00 0.00 0.00 48 1039.9
20260905054503 63 303 3.0 6.0 0.00 0.00 0.00 49 1039.9
20260905054217 62 307 3.0 5.0 0.00 0.00 0.00 50 1039.9
20260905053503 61 307 2.0 5.0 0.00 0.00 0.00 51 1039.9
20260905053003 60 323 2.0 3.0 0.00 0.00 0.00 52 1039.9
20260905052503 60 335 1.0 3.0 0.00 0.00 0.00 53 1039.9
20260905052003 59 336 1.0 3.0 0.00 0.00 0.00 53 1039.9
20260905051503 58 336 1.0 2.0 0.00 0.00 0.00 54 1039.9
20260905051003 58 336 0.0 2.0 0.00 0.00 0.00 53 1039.9
20260905050503 59 336 0.0 1.0 0.00 0.00 0.00 53 1039.9
20260905050004 59 336 0.0 1.0 0.00 0.00 0.00 53 1040.0
20260905045503 59 336 0.0 1.0 0.00 0.00 0.00 53 1040.0
20260905045003 59 336 0.0 1.0 0.00 0.00 0.00 53 1040.0
20260905044503 59 336 0.0 1.0 0.00 0.00 0.00 53 1040.0
20260905044003 59 336 0.0 1.0 0.00 0.00 0.00 53 1040.1
20260905043503 59 335 0.0 1.0 0.00 0.00 0.00 53 1040.1
20260905043003 59 335 0.0 1.0 0.00 0.00 0.00 52 1040.2
20260905042503 60 333 0.0 1.0 0.00 0.00 0.00 52 1040.2
20260905042003 60 324 0.0 2.0 0.00 0.00 0.00 52 1040.3
20260905041503 60 304 1.0 3.0 0.00 0.00 0.00 52 1040.3
20260905041003 60 303 1.0 3.0 0.00 0.00 0.00 51 1040.3
20260905040503 60 309 1.0 3.0 0.00 0.00 0.00 50 1040.3
20260905040003 61 309 1.0 4.0 0.00 0.00 0.00 50 1040.4
20260905035503 61 309 1.0 4.0 0.00 0.00 0.00 50 1040.4
20260905035218 61 313 1.0 3.0 0.00 0.00 0.00 50 1040.4
20260905034503 61 64 1.0 3.0 0.00 0.00 0.00 49 1040.3
20260905034003 62 93 0.0 2.0 0.00 0.00 0.00 49 1040.3
20260905033503 62 93 0.0 1.0 0.00 0.00 0.00 49 1040.3
20260905033003 62 94 0.0 3.0 0.00 0.00 0.00 48 1040.2
20260905032503 63 89 1.0 3.0 0.00 0.00 0.00 47 1040.2
20260905032003 63 83 1.0 3.0 0.00 0.00 0.00 47 1040.2
20260905031503 63 79 1.0 5.0 0.00 0.00 0.00 46 1040.2
20260905031003 63 83 2.0 5.0 0.00 0.00 0.00 47 1040.0
20260905030720 63 94 1.0 5.0 0.00 0.00 0.00 46 1040.0
20260905030003 62 118 1.0 3.0 0.00 0.00 0.00 47 1039.9
20260905025503 62 134 1.0 3.0 0.00 0.00 0.00 47 1039.8
20260905025003 62 168 0.0 3.0 0.00 0.00 0.00 47 1039.8
20260905024503 62 184 0.0 2.0 0.00 0.00 0.00 46 1039.8
20260905024003 62 185 0.0 1.0 0.00 0.00 0.00 46 1039.7
20260905023503 62 199 1.0 2.0 0.00 0.00 0.00 46 1039.7
20260905023003 62 207 1.0 2.0 0.00 0.00 0.00 46 1039.6
20260905022718 62 213 1.0 2.0 0.00 0.00 0.00 46 1039.5
20260905022003 62 218 1.0 3.0 0.00 0.00 0.00 44 1039.5
20260905021503 63 221 1.0 3.0 0.00 0.00 0.00 43 1039.4
20260905021004 63 225 0.0 3.0 0.00 0.00 0.00 43 1039.3
20260905020720 64 226 0.0 3.0 0.00 0.00 0.00 42 1039.3
20260905020003 65 234 0.0 2.0 0.00 0.00 0.00 40 1039.3
20260905015503 65 233 1.0 2.0 0.00 0.00 0.00 39 1039.3
20260905015003 66 233 1.0 2.0 0.00 0.00 0.00 38 1039.4
20260905014503 66 233 0.0 2.0 0.00 0.00 0.00 38 1039.2
20260905014003 67 233 0.0 1.0 0.00 0.00 0.00 37 1039.1
20260905013503 67 232 0.0 1.0 0.00 0.00 0.00 36 1039.1
20260905013003 68 232 0.0 1.0 0.00 0.00 0.00 36 1039.0
20260905012503 68 232 0.0 1.0 0.00 0.00 0.00 36 1039.0
20260905012004 68 231 0.0 1.0 0.00 0.00 0.00 35 1038.9
20260905011503 69 115 0.0 3.0 0.00 0.00 0.00 35 1039.0
20260905011003 70 160 1.0 3.0 0.00 0.00 0.00 34 1039.0
20260905010503 71 232 0.0 2.0 0.00 0.00 0.00 33 1039.0
20260905010004 71 147 0.0 2.0 0.00 0.00 0.00 33 1039.0
20260905005503 72 115 0.0 2.0 0.00 0.00 0.00 32 1038.9
20260905005003 72 153 0.0 2.0 0.00 0.00 0.00 31 1038.8
20260905004503 72 248 1.0 4.0 0.00 0.00 0.00 31 1038.8
20260905004003 72 260 1.0 4.0 0.00 0.00 0.00 30 1038.7
20260905003503 73 278 1.0 2.0 0.00 0.00 0.00 30 1038.7
20260905003004 74 279 1.0 2.0 0.00 0.00 0.00 31 1038.7
20260905002503 74 283 2.0 4.0 0.00 0.00 0.00 30 1038.7
20260905002004 74 284 2.0 6.0 0.00 0.00 0.00 32 1038.8
20260905001720 74 286 2.0 6.0 0.00 0.00 0.00 32 1038.8
20260905001003 74 302 3.0 9.0 0.00 0.00 0.00 32 1038.9
20260905000721 74 309 5.0 11.0 0.00 0.00 0.00 33 1038.9
20260905000219 74 308 4.0 11.0 0.00 0.00 0.00 32 1038.9
20260904235503 75 220 2.0 4.0 0.00 0.00 0.00 29 1038.8
20260904235003 74 235 2.0 9.0 0.00 0.00 0.00 30 1038.8
20260904234503 73 259 3.0 9.0 0.00 0.00 0.00 31 1038.9
20260904234221 73 257 3.0 9.0 0.00 0.00 0.00 31 1039.0
20260904233719 74 248 3.0 8.0 0.00 0.00 0.00 30 1039.0
20260904233003 73 241 2.0 6.0 0.00 0.00 0.00 31 1039.0
20260904232503 73 247 3.0 8.0 0.00 0.00 0.00 31 1039.0
20260904232003 73 266 4.0 9.0 0.00 0.00 0.00 31 1038.9
20260904231503 74 270 4.0 9.0 0.00 0.00 0.00 30 1038.9
20260904231003 74 271 5.0 11.0 0.00 0.00 0.00 30 1039.0
20260904230503 74 272 5.0 11.0 0.00 0.00 0.00 30 1038.9
20260904230003 73 264 3.0 8.0 0.00 0.00 0.00 31 1038.9
20260904225503 71 247 3.0 7.0 0.00 0.00 0.00 31 1039.0
20260904225003 70 247 3.0 8.0 0.00 0.00 0.00 31 1039.0
20260904224503 70 269 3.0 9.0 0.00 0.00 0.00 31 1039.0
20260904224003 70 257 4.0 10.0 0.00 0.00 0.00 32 1039.0
20260904223503 70 251 4.0 12.0 0.00 0.00 0.00 33 1039.2
20260904223003 70 252 4.0 12.0 0.00 0.00 0.00 32 1039.1
20260904222721 70 256 3.0 11.0 0.00 0.00 0.00 35 1039.2
20260904222003 70 249 4.0 11.0 0.00 0.00 0.00 36 1039.1
20260904221503 70 249 5.0 11.0 0.00 0.00 0.00 38 1039.1
20260904221003 71 253 6.0 11.0 0.00 0.00 0.00 38 1039.0
20260904220503 71 255 5.0 11.0 0.00 0.00 0.00 37 1039.0
20260904220221 71 259 5.0 10.0 0.00 0.00 0.00 36 1039.1
20260904215718 72 238 4.0 10.0 0.00 0.00 0.00 35 1039.0
20260904215003 72 230 4.0 8.0 0.00 0.00 0.00 35 1039.1
20260904214503 72 257 3.0 8.0 0.00 0.00 0.00 35 1039.1
20260904214003 72 249 2.0 8.0 0.00 0.00 0.00 34 1039.1
20260904213721 72 175 2.0 7.0 0.00 0.00 0.00 34 1039.1
20260904213003 72 196 4.0 11.0 0.00 0.00 0.00 34 1039.1
20260904212503 73 194 4.0 12.0 0.00 0.00 0.00 34 1039.0
20260904212003 72 241 4.0 12.0 0.00 0.00 0.00 34 1039.1
20260904211717 72 233 4.0 12.0 0.00 0.00 0.00 34 1039.1
20260904211003 74 177 3.0 8.0 0.00 0.00 0.00 32 1039.0
20260904210503 75 228 4.0 11.0 0.00 0.00 0.00 31 1039.1
20260904210004 76 149 4.0 16.0 0.00 0.00 0.00 30 1039.1
20260904205503 77 134 5.0 16.0 0.00 0.00 0.00 30 1039.1
20260904205003 76 137 6.0 18.0 0.00 0.00 0.00 30 1039.1
20260904204503 76 131 8.0 18.0 0.00 0.00 0.00 31 1039.2
20260904204218 76 128 8.0 18.0 0.00 0.00 0.00 31 1039.1
20260904203503 75 131 5.0 17.0 0.00 0.00 0.00 32 1039.3
20260904203003 75 150 6.0 13.0 0.00 0.00 0.00 32 1039.5
20260904202503 75 185 5.0 13.0 0.00 0.00 0.00 33 1039.5
20260904202003 75 169 5.0 12.0 0.00 0.00 0.00 33 1039.5
20260904201718 75 150 5.0 12.0 0.00 0.00 0.00 32 1039.7
20260904201003 75 172 5.0 11.0 0.00 0.00 0.00 32 1039.7
20260904200719 75 174 5.0 11.0 0.00 0.00 0.00 32 1039.8
20260904200003 74 188 5.0 12.0 0.00 0.00 0.00 33 1039.8
20260904195720 74 245 5.0 12.0 0.00 0.00 0.00 33 1039.9
20260904195218 73 263 5.0 11.0 0.00 0.00 0.00 32 1039.9
20260904194503 73 258 5.0 12.0 0.00 0.00 0.00 33 1040.0
20260904194003 73 280 5.0 12.0 0.00 0.00 0.00 34 1039.9
20260904193503 73 301 6.0 13.0 0.00 0.00 0.00 33 1040.0
20260904193003 73 290 6.0 13.0 0.00 0.00 0.00 33 1040.1
20260904192718 73 271 5.0 11.0 0.00 0.00 0.00 33 1040.0
20260904192003 72 280 6.0 17.0 0.00 0.00 0.00 34 1040.1
20260904191503 73 289 6.0 17.0 0.00 0.00 0.00 32 1040.1
20260904191003 73 296 6.0 12.0 0.00 0.00 0.00 35 1040.1
20260904190503 73 279 5.0 12.0 0.00 0.00 0.00 34 1040.1
20260904190004 73 164 5.0 11.0 0.00 0.00 0.00 35 1040.3
20260904185503 72 155 5.0 10.0 0.00 0.00 0.00 37 1040.3
20260904185218 72 195 5.0 10.0 0.00 0.00 0.00 36 1040.3
20260904184503 71 259 4.0 10.0 0.00 0.00 0.00 36 1040.3
20260904184003 70 272 5.0 11.0 0.00 0.00 0.00 36 1040.5
20260904183503 70 266 4.0 12.0 0.00 0.00 0.00 37 1040.5
20260904183003 71 269 3.0 12.0 0.00 0.00 0.00 35 1040.3
20260904182503 71 275 4.0 10.0 0.00 0.00 0.00 35 1040.4
20260904182221 71 279 5.0 13.0 0.00 0.00 0.00 37 1040.6
20260904181503 71 261 6.0 13.0 0.00 0.00 0.00 37 1040.8
20260904181003 71 240 4.0 12.0 0.00 0.00 0.00 36 1040.7
20260904180503 72 240 4.0 10.0 0.00 0.00 0.00 36 1040.7
20260904180003 72 243 4.0 10.0 0.00 0.00 0.00 35 1040.8
20260904175503 72 263 4.0 10.0 0.00 0.00 0.00 37 1040.7
20260904175003 71 284 5.0 15.0 0.00 0.00 0.00 38 1040.8
20260904174717 71 278 5.0 15.0 0.00 0.00 0.00 36 1040.8
20260904174220 72 254 5.0 15.0 0.00 0.00 0.00 35 1040.9
20260904173503 71 176 5.0 13.0 0.00 0.00 0.00 36 1040.9
20260904173221 71 158 5.0 13.0 0.00 0.00 0.00 37 1040.8
20260904172503 71 168 3.0 8.0 0.00 0.00 0.00 39 1040.9
20260904171503 69 252 4.0 10.0 0.00 0.00 0.00 40 1040.7
20260904171003 70 144 4.0 12.0 0.00 0.00 0.00 40 1040.7
20260904170503 70 150 4.0 12.0 0.00 0.00 0.00 39 1040.7
20260904170004 70 244 3.0 12.0 0.00 0.00 0.00 41 1040.7
20260904165503 70 211 3.0 8.0 0.00 0.00 0.00 40 1040.7
20260904165003 69 190 3.0 11.0 0.00 0.00 0.00 41 1040.7
20260904164503 69 177 3.0 11.0 0.00 0.00 0.00 42 1040.7
20260904164003 68 160 4.0 12.0 0.00 0.00 0.00 43 1040.8
20260904163718 68 168 4.0 12.0 0.00 0.00 0.00 42 1040.8
20260904163003 67 231 3.0 8.0 0.00 0.00 0.00 43 1040.8
20260904162719 67 257 4.0 10.0 0.00 0.00 0.00 44 1040.7
20260904162004 66 272 6.0 12.0 0.00 0.00 0.00 45 1040.7
20260904161503 67 247 5.0 11.0 0.00 0.00 0.00 44 1040.8
20260904161003 67 205 5.0 12.0 0.00 0.00 0.00 44 1040.6
20260904160503 67 197 5.0 13.0 0.00 0.00 0.00 44 1040.6
20260904160003 67 180 4.0 13.0 0.00 0.00 0.00 44 1040.6
20260904155503 66 171 4.0 13.0 0.00 0.00 0.00 44 1040.5
20260904155003 66 167 5.0 13.0 0.00 0.00 0.00 46 1040.6
20260904154503 66 206 4.0 11.0 0.00 0.00 0.00 45 1040.6
20260904154003 65 258 4.0 8.0 0.00 0.00 0.00 45 1040.4
20260904153503 65 206 5.0 10.0 0.00 0.00 0.00 46 1040.3
20260904153003 65 172 5.0 10.0 0.00 0.00 0.00 46 1040.4
20260904152504 65 175 4.0 9.0 0.00 0.00 0.00 46 1040.4
20260904152003 65 164 3.0 9.0 0.00 0.00 0.00 46 1040.3
20260904151503 64 163 4.0 7.0 0.00 0.00 0.00 47 1040.4
20260904151003 64 180 4.0 9.0 0.00 0.00 0.00 47 1040.4
20260904150503 63 198 4.0 11.0 0.00 0.00 0.00 47 1040.4
20260904150004 63 219 3.0 11.0 0.00 0.00 0.00 47 1040.4
20260904145503 63 210 4.0 10.0 0.00 0.00 0.00 47 1040.4
20260904145003 62 229 4.0 10.0 0.00 0.00 0.00 47 1040.4
20260904144503 62 264 4.0 9.0 0.00 0.00 0.00 47 1040.3
20260904144003 62 270 4.0 9.0 0.00 0.00 0.00 46 1040.2
20260904143503 62 273 3.0 8.0 0.00 0.00 0.00 47 1040.2
20260904143003 62 270 3.0 8.0 0.00 0.00 0.00 47 1040.2